User: anonymous   Login
Location: Fiddletown
(38.4917°N, 120.6633°W)
Time: 08:54:18
(UTC-07:00)
Language:

Envisat - Orbit

View from above orbital plane
View from above orbital plane
View from above satellite
View from above satellite

Ground track
Ground track

The orbit data is extracted from the following two-line orbital elements,

1 27386U 02009A   15242.26940972  .00000243  00000-0  94622-4 0  9996
2 27386 098.3259 300.4573 0001153 084.0306 276.1018 14.37830502706671
Epoch (UTC): 30 August 2015 06:27:57
Eccentricity: 0.0001153
inclination: 98.3259°
perigee height: 765 km
apogee height: 766 km
right ascension of ascending node: 300.4573°
argument of perigee: 84.0306°
revolutions per day: 14.37830502
mean anomaly at epoch: 276.1018°
orbit number at epoch: 70667

The dashed part of the orbit path shows where the satellite is in the earth's shadow,  

DLR